TechnoSat
1 42829U 17042E 20135.93118218 .00000026 00000-0 79421-5 0 9999
2 42829 097.5245 019.2773 0015311 041.5907 318.6473 14.91091067154296
QIKCOM-1
1 42983U 98067NF 20135.96356429 .00002665 00000-0 36783-4 0 9991
2 42983 051.6380 114.2923 0003106 300.3453 059.7233 15.61324304145054
AO-91
1 43017U 17073E 20135.69568471 .00000244 00000-0 24262-4 0 9990
2 43017 097.7243 049.2347 0257523 160.0483 201.1027 14.78903389134175
EcAMSat
1 43019U 98067NG 20135.94203157 .00006020 00000-0 63644-4 0 9994
2 43019 051.6399 101.4764 0002803 289.0732 070.9960 15.65766138227548
PICSAT
1 43132U 18004X 20135.63989420 .00001000 00000-0 43795-4 0 9991
2 43132 097.4485 207.1865 0010032 163.0224 197.1351 15.24340233129900
AO-92
1 43137U 18004AC 20135.86890268 .00000759 00000-0 34192-4 0 9993
2 43137 097.4470 207.2551 0009589 163.8255 196.3290 15.24064265129933
TianYi 2
1 43155U 18008A 20135.85400336 .00000631 00000-0 40820-4 0 9993
2 43155 097.4473 205.7980 0015899 264.0049 207.7120 15.11592632127848
Zhou Enlai
1 43156U 18008B 20135.87658269 .00000917 00000-0 58434-4 0 9993
2 43156 097.4525 205.6747 0012887 263.0562 221.8134 15.11133168127803
TianYi 6
1 43158U 18008D 20135.75612417 .00000603 00000-0 40192-4 0 9991
2 43158 097.4474 204.6559 0012192 262.5957 246.2141 15.10669008127736
S-Net G
1 43186U 18014G 20135.88946409 .00000602 00000-0 57659-4 0 9999
2 43186 097.6961 044.2694 0010420 345.6623 014.4301 14.96795981124679
S-Net H
1 43187U 18014H 20135.88928452 .00000602 00000-0 57587-4 0 9998
2 43187 097.6959 044.2486 0010409 345.5758 014.5165 14.96795850124675
S-Net J
1 43188U 18014J 20135.82229846 .00000593 00000-0 56794-4 0 9992
2 43188 097.6962 044.2111 0010423 345.8305 014.2623 14.96795491124668
S-Net K
1 43189U 18014K 20135.88955714 .00000610 00000-0 58310-4 0 9995
2 43189 097.6958 044.2444 0010389 345.5964 014.4960 14.96795142123222
FMN 1
1 43192U 18015A 20135.87926257 .00001510 00000-0 62371-4 0 9991
2 43192 097.4380 265.5442 0015037 202.6458 256.1158 15.25499508126783
Shaonian Xing
1 43199U 18015H 20135.87671785 .00001067 00000-0 44662-4 0 9991
2 43199 097.4165 263.9030 0015868 213.1587 246.5662 15.25686028126843
1KUNS-PF
1 43466U 98067NP 20135.81284358 .00188715 25833-4 38590-3 0 9996
2 43466 051.6259 069.1972 0003158 117.3295 242.8036 15.98993008115130
UBAKUSAT
1 43467U 98067NQ 20135.33573750 .00018604 00000-0 13275-3 0 9998
2 43467 051.6322 097.1200 0001035 053.6638 306.4456 15.73847914114737
EnduroSat One
1 43551U 98067NZ 20135.46542230 .00036044 00000-0 20496-3 0 9996
2 43551 051.6344 094.9507 0003657 013.4146 346.6952 15.78613795105000
EQUISat
1 43552U 98067PA 20135.37923403 .00020247 00000-0 15099-3 0 9993
2 43552 051.6352 103.5181 0004269 352.1512 007.9419 15.72735229104842
UiTMSat 1
1 43589U 98067PD 20135.33164481 .00026711 00000-0 17907-3 0 9994
2 43589 051.6325 102.2727 0004235 012.3087 347.8015 15.75038471100593
Maya 1
1 43590U 98067PE 20135.32447265 .00027117 00000-0 18166-3 0 9998
2 43590 051.6307 102.2326 0004283 008.9539 351.1536 15.75045639100529
Bhutan 1
1 43591U 98067PF 20135.93446592 .00026874 00000-0 17885-3 0 9994
2 43591 051.6343 098.8674 0004344 014.8424 345.2703 15.75202797100624
SiriusSat 1
1 43595U 98067PG 20135.93676469 .00022611 00000-0 16661-3 0 9992
2 43595 051.6315 103.3498 0001913 006.6048 353.4975 15.72944408099744
SiriusSat 2
1 43596U 98067PH 20135.93272178 .00022279 00000-0 16494-3 0 9996
2 43596 051.6325 104.1448 0001974 355.1742 004.9237 15.72843122099739
Tanusha-3
1 43597U 98067PJ 20135.91681448 .00053033 00000-0 26052-3 0 9992
2 43597 051.6293 093.3149 0002878 046.5727 313.5514 15.81652817099870
SurfSat
1 43614U 18070B 20135.79135970 .00001992 00000-0 51507-4 0 9999
2 43614 093.0200 140.6785 0018117 104.7245 255.6019 15.39035557093302
CP-7 DAVE
1 43615U 18070C 20135.94975366 .00001922 00000-0 49917-4 0 9993
2 43615 093.0201 140.7361 0018273 103.8163 256.5126 15.38898962093324
ELFIN-B
1 43616U 18070D 20135.95381427 .00003059 00000-0 76064-4 0 9990
2 43616 093.0166 140.6703 0018840 105.5843 254.7493 15.40171855093367
ELFIN-A
1 43617U 18070E 20135.79606730 .00002940 00000-0 72720-4 0 9993
2 43617 093.0218 141.0892 0018250 103.2943 257.0349 15.40342418093340
STARS-Me Mother
1 43640U 98067PQ 20135.39940528 .00008888 00000-0 94092-4 0 9998
2 43640 051.6344 120.8953 0002994 276.8448 083.2207 15.65008763091398
CubeBel 1
1 43666U 18083E 20135.89353188 .00000613 00000-0 33231-4 0 9997
2 43666 097.4917 162.6887 0016525 113.5157 009.1011 15.18198000085529
Changshagaoxin
1 43669U 18083H 20135.91022810 .00000580 00000-0 32471-4 0 9996
2 43669 097.4793 160.9992 0012542 108.0576 252.2025 15.17248446085447
Ten-Koh
1 43677U 18084G 20135.85099558 .00000068 00000-0 12876-4 0 9990
2 43677 097.8784 253.0023 0014533 269.1672 090.7881 14.90279166083937
PO-101
1 43678U 18084H 20135.86613530 -.00000315 00000-0 -25636-4 0 9999
2 43678 097.8782 254.2796 0008612 292.9497 067.0808 14.91623807084018
IRVINE 01
1 43693U 18088D 20135.32165990 .00002047 00000-0 85582-4 0 9991
2 43693 085.0336 099.6029 0020177 060.7288 299.5968 15.22734331083656
QO-100
1 43700U 18090A 20135.92896644 .00000135 00000-0 00000-0 0 9990
2 43700 000.0046 101.1570 0001343 335.4881 156.6787 01.00274013005377
Reaktor Hello World
1 43743U 18096AA 20135.62335797 .00000853 00000-0 34546-4 0 9990
2 43743 097.4222 209.6669 0016346 245.1848 114.7692 15.27336603081239
MinXSS-2
1 43758U 18099A 20135.74695459 .00000712 00000-0 69156-4 0 9995
2 43758 097.7076 208.2347 0014112 305.1184 054.8713 14.95645391078912
AO-95
1 43770U 18099N 20135.90866749 -.00000158 00000-0 -92162-5 0 9999
2 43770 097.7070 207.8710 0013399 313.3960 046.6144 14.94970573078906
RANGE-B
1 43772U 18099Q 20135.86616360 .00000379 00000-0 39778-4 0 9994
2 43772 097.7134 208.3001 0012717 298.9464 061.0481 14.95151600078894
RANGE-A
1 43773U 18099R 20135.63116346 .00000050 00000-0 98037-5 0 9999
2 43773 097.7014 207.2651 0012157 300.8355 059.1669 14.94955079078854
MOVE-II
1 43780U 18099Y 20135.86677093 .00000490 00000-0 49572-4 0 9990
2 43780 097.7070 208.0180 0012173 310.6234 049.3927 14.95368567078896
SNUSat 2
1 43782U 18099AA 20135.67519189 .00000553 00000-0 55430-4 0 9992
2 43782 097.7065 207.8411 0011270 299.7193 060.2906 14.95238880078875
SnugLite
1 43784U 18099AC 20135.64575642 -.00000205 00000-0 -13358-4 0 9996
2 43784 097.7032 207.6481 0013875 308.1557 051.8413 14.95335291078882
ITASat 1
1 43786U 18099AE 20135.77938503 -.00000244 00000-0 -16873-4 0 9999
2 43786 097.7086 208.1393 0013967 306.7470 053.2468 14.95312173078904
EAGLET 1
1 43790U 18099AJ 20135.77994552 -.00000285 00000-0 -20383-4 0 9996
2 43790 097.7075 208.3797 0012427 312.3703 047.6465 14.95693404078610
ESEO
1 43792U 18099AL 20135.78795814 -.00000249 00000-0 -17192-4 0 9993
2 43792 097.7047 208.2283 0012151 308.6195 051.3937 14.95591217078678
CSIM
1 43793U 18099AM 20135.77555294 -.00000054 00000-0 34396-6 0 9999
2 43793 097.7043 208.1778 0011607 305.7703 054.2438 14.96019045078652
Astrocast 0.1
1 43798U 18099AS 20135.84008680 -.00000249 00000-0 -17108-4 0 9991
2 43798 097.7071 208.5311 0010977 290.1652 069.8388 14.95860884078924
JO-97
1 43803U 18099AX 20135.66403695 .00000250 00000-0 27721-4 0 9995
2 43803 097.7043 207.8527 0013832 307.1154 052.8802 14.95482297078886
